Weather History for Escanaba, MI

Change the Weather History Date:

Friday, September 13, 2013

  Actual Average Record
Temperature  
Mean Temperature 50 °F -  
Max Temperature 59 °F 66 °F 80 °F (2005)
Min Temperature 41 °F 50 °F 35 °F (1975)
Degree Days  
Heating Degree Days 14    
Moisture  
Dew Point 39 °F    
Average Humidity 67    
Maximum Humidity 87    
Minimum Humidity 45    
Precipitation  
Precipitation 0.00 in - - ()
Sea Level Pressure  
Sea Level Pressure 30.17 in    
Wind  
Wind Speed 6 mph (North)    
Max Wind Speed 14 mph    
Max Gust Speed 20 mph    
Visibility 10 miles    
Events      
Averages and records for this station are not official NWS values.
T = Trace of Precipitation, MM = Missing Value Source: NWS Daily Summary

Daily Weather History Graph

Daily Weather History Graph

Search for Another Location

Airport:

Trip Planner

Search our weather history database for the weather conditions in past years. The results will help you decide how hot, cold, wet, or windy it might be!

Date:

Astronomy

Sep. 13, 2013 Rise Set
Actual Time 7:24 AM EDT 8:02 PM EDT
Civil Twilight 6:54 AM EDT 8:32 PM EDT
Nautical Twilight 6:18 AM EDT 9:08 PM EDT
Astronomical Twilight 5:41 AM EDT 9:45 PM EDT
Moon 4:05 PM EDT (9/13) 12:39 AM EDT (9/13)
Length of Visible Light 13h 38m
Length of Day
12h 38m
First Quarter, 61% of the Moon is Illuminated
Sep 13
First Quarter
Sep 19
Full
Sep 26
Last Quarter
Oct 4
New
Oct 11
First Quarter

Hourly Weather History & Observations

Time (EDT) Temp. Windchill Dew Point Humidity Pressure Visibility Wind Dir Wind Speed Gust Speed Precip Events Conditions
12:15 AM 48.2 °F - 44.6 °F 87% 30.14 in 10.0 mi NW 5.8 mph - N/A   Overcast
12:35 AM 48.2 °F - 44.6 °F 87% 30.15 in 10.0 mi NW 5.8 mph - N/A   Overcast
12:55 AM 48.2 °F - 44.6 °F 87% 30.15 in 10.0 mi NW 5.8 mph - N/A   Overcast
1:15 AM 48.2 °F - 44.6 °F 87% 30.15 in 10.0 mi NW 4.6 mph - N/A   Overcast
1:35 AM 48.2 °F - 44.6 °F 87% 30.15 in 10.0 mi NW 5.8 mph - N/A   Overcast
1:55 AM 48.2 °F - 44.6 °F 87% 30.15 in 10.0 mi NW 5.8 mph - N/A   Overcast
2:15 AM 48.2 °F - 44.6 °F 87% 30.16 in 10.0 mi WNW 5.8 mph - N/A   Overcast
2:35 AM 48.2 °F - 42.8 °F 82% 30.16 in 10.0 mi NW 9.2 mph - N/A   Overcast
2:55 AM 48.2 °F - 42.8 °F 82% 30.15 in 10.0 mi NW 8.1 mph - N/A   Overcast
3:15 AM 48.2 °F - 41.0 °F 76% 30.16 in 10.0 mi NNW 6.9 mph - N/A   Overcast
3:35 AM 48.2 °F - 41.0 °F 76% 30.16 in 10.0 mi NW 8.1 mph - N/A   Overcast
3:55 AM 46.4 °F 42.9 °F 39.2 °F 76% 30.16 in 10.0 mi NW 6.9 mph - N/A   Overcast
4:15 AM 46.4 °F 43.5 °F 39.2 °F 76% 30.17 in 10.0 mi NNW 5.8 mph - N/A   Mostly Cloudy
4:35 AM 46.4 °F 43.5 °F 39.2 °F 76% 30.17 in 10.0 mi NNW 5.8 mph - N/A   Mostly Cloudy
4:55 AM 44.6 °F 41.4 °F 39.2 °F 81% 30.17 in 10.0 mi NNW 5.8 mph - N/A   Mostly Cloudy
5:15 AM 44.6 °F 42.2 °F 39.2 °F 81% 30.17 in 10.0 mi NNW 4.6 mph - N/A   Mostly Cloudy
5:35 AM 44.6 °F 41.4 °F 39.2 °F 81% 30.17 in 10.0 mi NNW 5.8 mph - N/A   Clear
5:55 AM 44.6 °F 42.2 °F 39.2 °F 81% 30.17 in 10.0 mi North 4.6 mph - N/A   Clear
6:15 AM 44.6 °F 42.2 °F 39.2 °F 81% 30.18 in 10.0 mi NNW 4.6 mph - N/A   Clear
6:35 AM 42.8 °F 40.1 °F 39.2 °F 87% 30.18 in 10.0 mi NNW 4.6 mph - N/A   Clear
6:55 AM 42.8 °F 40.1 °F 37.4 °F 81% 30.18 in 10.0 mi NNW 4.6 mph - N/A   Clear
7:15 AM 42.8 °F 40.1 °F 37.4 °F 81% 30.19 in 10.0 mi NNW 4.6 mph - N/A   Clear
7:35 AM 42.8 °F 41.1 °F 37.4 °F 81% 30.19 in 10.0 mi NNW 3.5 mph - N/A   Clear
7:55 AM 42.8 °F 40.1 °F 37.4 °F 81% 30.20 in 10.0 mi NW 4.6 mph - N/A   Clear
8:15 AM 42.8 °F 40.1 °F 37.4 °F 81% 30.20 in 10.0 mi NW 4.6 mph - N/A   Clear
8:35 AM 44.6 °F 41.4 °F 37.4 °F 76% 30.20 in 10.0 mi NNW 5.8 mph - N/A   Clear
8:55 AM 46.4 °F 43.5 °F 37.4 °F 71% 30.21 in 10.0 mi North 5.8 mph - N/A   Clear
9:15 AM 46.4 °F 42.4 °F 37.4 °F 71% 30.21 in 10.0 mi NNE 8.1 mph 16.1 mph N/A   Clear
9:35 AM 48.2 °F - 37.4 °F 66% 30.21 in 10.0 mi North 9.2 mph 16.1 mph N/A   Clear
9:55 AM 48.2 °F - 37.4 °F 66% 30.21 in 10.0 mi NNE 9.2 mph - N/A   Clear
10:15 AM 50.0 °F - 37.4 °F 62% 30.21 in 10.0 mi North 10.4 mph - N/A   Clear
10:35 AM 51.8 °F - 37.4 °F 58% 30.21 in 10.0 mi NNE 11.5 mph 18.4 mph N/A   Clear
10:55 AM 51.8 °F - 37.4 °F 58% 30.21 in 10.0 mi NNE 11.5 mph 16.1 mph N/A   Clear
11:15 AM 53.6 °F - 37.4 °F 54% 30.22 in 10.0 mi NNE 9.2 mph - N/A   Clear
11:35 AM 53.6 °F - 37.4 °F 54% 30.22 in 10.0 mi North 9.2 mph 16.1 mph N/A   Partly Cloudy
11:55 AM 53.6 °F - 37.4 °F 54% 30.21 in 10.0 mi North 11.5 mph 19.6 mph N/A   Clear
12:15 PM 53.6 °F - 35.6 °F 51% 30.22 in 10.0 mi NNE 10.4 mph - N/A   Partly Cloudy
12:35 PM 55.4 °F - 35.6 °F 47% 30.21 in 10.0 mi NNE 13.8 mph 17.3 mph N/A   Clear
12:55 PM 55.4 °F - 35.6 °F 47% 30.21 in 10.0 mi NNE 11.5 mph 16.1 mph N/A   Clear
1:15 PM 55.4 °F - 37.4 °F 51% 30.21 in 10.0 mi North 10.4 mph 19.6 mph N/A   Clear
1:35 PM 57.2 °F - 37.4 °F 48% 30.21 in 10.0 mi NNE 10.4 mph 16.1 mph N/A   Clear
1:55 PM 57.2 °F - 37.4 °F 48% 30.20 in 10.0 mi NNE 10.4 mph - N/A   Partly Cloudy
2:15 PM 57.2 °F - 39.2 °F 51% 30.20 in 10.0 mi North 8.1 mph - N/A   Partly Cloudy
2:35 PM 59.0 °F - 39.2 °F 48% 30.19 in 10.0 mi North 10.4 mph - N/A   Scattered Clouds
2:55 PM 57.2 °F - 37.4 °F 48% 30.19 in 10.0 mi NNW 9.2 mph - N/A   Scattered Clouds
3:15 PM 57.2 °F - 37.4 °F 48% 30.19 in 10.0 mi NNE 8.1 mph - N/A   Scattered Clouds
3:35 PM 59.0 °F - 37.4 °F 45% 30.18 in 10.0 mi NNE 10.4 mph - N/A   Partly Cloudy
3:55 PM 59.0 °F - 39.2 °F 48% 30.18 in 10.0 mi NNE 11.5 mph - N/A   Clear
4:15 PM 59.0 °F - 37.4 °F 45% 30.17 in 10.0 mi NNE 9.2 mph - N/A   Clear
4:35 PM 59.0 °F - 39.2 °F 48% 30.17 in 10.0 mi North 5.8 mph - N/A   Clear
4:55 PM 59.0 °F - 39.2 °F 48% 30.16 in 10.0 mi NE 9.2 mph - N/A   Clear
5:15 PM 59.0 °F - 39.2 °F 48% 30.16 in 10.0 mi ENE 6.9 mph - N/A   Clear
5:35 PM 59.0 °F - 39.2 °F 48% 30.16 in 10.0 mi NNE 5.8 mph - N/A   Partly Cloudy
5:55 PM 57.2 °F - 39.2 °F 51% 30.16 in 10.0 mi ENE 6.9 mph - N/A   Scattered Clouds
6:15 PM 59.0 °F - 39.2 °F 48% 30.17 in 10.0 mi North 6.9 mph - N/A   Scattered Clouds
6:35 PM 59.0 °F - 39.2 °F 48% 30.16 in 10.0 mi NW 6.9 mph - N/A   Partly Cloudy
6:55 PM 57.2 °F - 39.2 °F 51% 30.16 in 10.0 mi North 4.6 mph - N/A   Clear
7:15 PM 57.2 °F - 39.2 °F 51% 30.16 in 10.0 mi NNE 5.8 mph - N/A   Clear
7:35 PM 55.4 °F - 39.2 °F 54% 30.16 in 10.0 mi NE 5.8 mph - N/A   Clear
7:55 PM 55.4 °F - 41.0 °F 58% 30.15 in 10.0 mi NNE 4.6 mph - N/A   Clear
8:15 PM 53.6 °F - 39.2 °F 58% 30.15 in 10.0 mi NNE 4.6 mph - N/A   Clear
8:35 PM 51.8 °F - 39.2 °F 62% 30.15 in 10.0 mi NE 3.5 mph - N/A   Clear
8:55 PM 51.8 °F - 39.2 °F 62% 30.16 in 10.0 mi Calm Calm - N/A   Clear
9:15 PM 46.4 °F - 41.0 °F 81% 30.16 in 10.0 mi Calm Calm - N/A   Clear
9:35 PM 46.4 °F - 41.0 °F 81% 30.16 in 10.0 mi Calm Calm - N/A   Clear
9:55 PM 44.6 °F - 39.2 °F 81% 30.15 in 10.0 mi Calm Calm - N/A   Clear
10:15 PM 44.6 °F - 41.0 °F 87% 30.15 in 10.0 mi Calm Calm - N/A   Clear
10:35 PM 44.6 °F - 41.0 °F 87% 30.14 in 10.0 mi Calm Calm - N/A   Clear
10:55 PM 44.6 °F - 39.2 °F 81% 30.14 in 10.0 mi Calm Calm - N/A   Clear
11:15 PM 42.8 °F - 39.2 °F 87% 30.13 in 10.0 mi Calm Calm - N/A   Clear
11:35 PM 42.8 °F - 39.2 °F 87% 30.13 in 10.0 mi Calm Calm - N/A   Clear
11:55 PM 41.0 °F 39.0 °F 37.4 °F 87% 30.13 in 10.0 mi NW 3.5 mph - N/A   Clear